STARLINK-34058, 63818

Orbit data source: Space-Track

STARLINK-34058, 63818 is a payload satellite owned by SpaceX/Seattle (US) in LEO that was launched on Sun, 04 May 2025 UTC via an FALCON 9 launch vehicle from the Air Force Eastern Test Range (AFETR). Payload-class satellites include a variety of spacecraft equipped with specific instruments for various scientific and technological missions. These include communications satellites like Starlink; space stations such as the ISS; scientific satellites like the Hubble; Earth observation satellites from companies like Planet Labs, Umbra, and HawkEye 360; GPS; miniature CubeSats for education and research; and military/defense satellites.

Loading next visibility...
Identifier
63818, 2025-092Q
Orbit
LEO
Country
Flag of USUS
Related business
Manufacturer
SpaceX/Seattle
Mission
Operational Commercial Communications
Bus & Motor
STARLINK V2MO, Unknown motor
Mass
575 kg wet, ~530 kg dry
Launch date (UTC)
2025-05-04 (1 year ago)
Launch vehicle
FALCON 9
Launch site
Air Force Eastern Test Range (AFETR)
Object type
Payload
Rocket body
Debris
Shape & HBR
Box + 2 Pan, 17.7 m
Radar Cross Section
36.964 m², Large (>1 m²)

Expand to show TLE details & history
Last TLE update: 14 hours ago

TLE from 14 hours ago
0 STARLINK-34058
1 63818U 25092Q   26124.56267858  .00012814  00000-0  47465-3 0  9991
2 63818  43.0002 216.6679 0001061 264.3792  95.6939 15.27559210 57218
Epoch: 2026-05-04T13:30Z
TLE epoch observation values (Epoch: 2026-05-04T13:30:15.429Z)
Latitude
0.00001°
Longitude
151.65354°
Altitude
482.959 km
Speed
7.626 km/s
True Right ascension
14h 26m 40s
True Declination
0° 00' 00"
Sunlit
Object was in full shadow at epoch
Visualization orbit readout
Latitude
Unknown
Longitude
Unknown
Altitude
Unknown
Speed
Unknown
Apparent Right ascension
Unknown
Apparent Declination
Unknown
Sunlit
N/A
Visualization observer readout
Local Sidereal Time
11:24:02
Azimuth
Unknown
Elevation
Unknown
Doppler factor
Unknown
Orbital elements
Apogee altitude
485.785 km
Perigee altitude
484.328 km
Semi-major axis
6,863.193 km
Eccentricity
0.00011
Inclination
43.0002°
RAAN
216.6679°
Arg. of periapsis
264.3792°
True anomaly
95.706°
Mean anomaly
95.6939°
Eccentric anomaly
95.69995°
Mean motion
3.81728 °/min
Orbital period
94.31 mins
BSTAR
0.00047465
Loading maneuver chart data...
Computing Atmospheric mass density...
Loading historical data...
Loading historical data...
Loading historical data...
Loading historical data...
Loading historical data...
Loading historical data...
Loading historical data...

Documentation

Showing up to 5 results
|